Location: Rosenheim
(47.8408°N, 12.2113°E)
Time: 05:07:00
(UTC+02:00)

ISS - Visible Passes

Search period start: 20 July 2018 00:00
Search period end: 30 July 2018 00:00
Orbit: 402 x 408 km, 51.6° (Epoch: 20 July)

Date Brightness Start Highest point End Pass type
(mag) Time Alt. Az. Time Alt. Az. Time Alt. Az.
20 Jul -2.9 00:39:11 10° W 00:42:24 49° NNW 00:45:37 10° ENE visible
20 Jul -2.6 02:16:04 10° WNW 02:19:15 44° N 02:22:26 10° E visible
20 Jul -3.9 03:52:37 10° WNW 03:55:54 70° SSW 03:59:10 10° SE visible
20 Jul -3.0 22:10:58 10° SSW 22:13:53 30° SE 22:16:49 10° E visible
20 Jul -3.4 23:46:57 10° W 23:50:13 64° NNW 23:53:31 10° ENE visible
21 Jul -2.5 01:23:54 10° WNW 01:27:03 40° N 01:30:12 10° ENE visible
21 Jul -3.8 03:00:30 10° WNW 03:03:49 79° NNE 03:07:06 10° ESE visible
21 Jul -2.6 04:37:23 10° W 04:40:01 22° SW 04:42:38 10° SSE visible
21 Jul -3.9 22:54:48 10° WSW 22:58:05 90° NNW 23:01:23 10° ENE visible
22 Jul -2.5 00:31:40 10° WNW 00:34:48 41° N 00:37:58 10° ENE visible
22 Jul -3.2 02:08:23 10° WNW 02:11:39 58° NNE 02:14:54 10° E visible
22 Jul -3.3 03:45:01 10° WNW 03:48:03 36° SW 03:51:07 10° SSE visible
22 Jul -3.8 22:02:46 10° SW 22:06:00 59° SSE 22:09:14 10° ENE visible
22 Jul -2.7 23:39:23 10° W 23:42:34 46° N 23:45:47 10° ENE visible
23 Jul -2.8 01:16:15 10° WNW 01:19:26 46° N 01:20:51 27° ENE visible
23 Jul -1.4 02:52:47 10° WNW 02:53:20 14° WNW 02:53:20 14° WNW visible
23 Jul -3.2 22:47:07 10° W 22:50:22 57° NNW 22:53:37 10° ENE visible
24 Jul -2.5 00:24:03 10° WNW 00:27:12 41° N 00:29:08 20° ENE visible
24 Jul -1.7 02:00:36 10° WNW 02:01:44 20° WNW 02:01:44 20° WNW visible
24 Jul -3.7 21:54:53 10° WSW 21:58:11 79° NNW 22:01:27 10° ENE visible
24 Jul -2.5 23:31:47 10° WNW 23:34:55 40° N 23:38:04 10° ENE visible
25 Jul -2.6 01:08:27 10° WNW 01:10:45 40° NW 01:10:45 40° NW visible
25 Jul -2.6 22:39:29 10° W 22:42:39 44° N 22:45:50 10° ENE visible
26 Jul -3.0 00:16:18 10° WNW 00:19:31 49° NNE 00:19:57 45° NE visible
26 Jul -3.0 21:47:10 10° W 21:50:23 52° NNW 21:53:37 10° ENE visible
26 Jul -2.7 23:24:04 10° WNW 23:27:14 42° N 23:29:17 19° ENE visible
27 Jul -1.7 01:00:36 10° WNW 01:01:54 22° WNW 01:01:54 22° WNW visible
27 Jul -2.5 22:31:48 10° WNW 22:34:55 40° N 22:38:04 10° ENE visible
28 Jul -3.3 00:08:25 10° WNW 00:11:16 60° NW 00:11:16 60° NW visible
28 Jul -2.6 21:39:28 10° W 21:42:36 42° N 21:45:46 10° ENE visible
28 Jul -3.2 23:16:13 10° WNW 23:19:27 54° NNE 23:20:39 32° ENE visible
29 Jul -1.1 00:52:47 10° WNW 00:53:17 13° WNW 00:53:17 13° WNW visible
29 Jul -2.8 22:23:59 10° WNW 22:27:09 44° N 22:30:05 12° E visible
